Weather History for KJAX - May, 2013

Change the Weather History Date:

Friday, May 24, 2013

  Actual Average Record
Temperature  
Mean Temperature 76 °F 76 °F  
Max Temperature 88 °F 87 °F 98 °F (1953)
Min Temperature 63 °F 65 °F 52 °F (2001)
Degree Days  
Heating Degree Days 0 0  
Month to date heating degree days 5 3  
Since 1 July heating degree days 1243 1347  
Cooling Degree Days 11 11  
Month to date cooling degree days 159 204  
Year to date cooling degree days 378 400  
Growing Degree Days 27 (Base 50)    
Moisture  
Dew Point 60 °F    
Average Humidity 65    
Maximum Humidity 100    
Minimum Humidity 29    
Precipitation  
Precipitation 0.00 in 0.10 in 4.09 in (1906)
Month to date precipitation 5.39 1.71  
Year to date precipitation 17.24 14.79  
Snow  
Snow 0.00 in 0.00 in 0.00 in (2002)
Month to date snowfall 0.0 0.0  
Since 1 July snowfall 0.0 T  
Snow Depth 0.00 in    
Sea Level Pressure  
Sea Level Pressure 30.03 in    
Wind  
Wind Speed 8 mph (NW)    
Max Wind Speed 18 mph    
Max Gust Speed 28 mph    
Visibility 10 miles    
Events      
T = Trace of Precipitation, MM = Missing Value Source: NWS Daily Summary

Daily Weather History Graph

Daily Weather History Graph

Search for Another Location

Airport or City:

Trip Planner

Search our weather history database for the weather conditions in past years. The results will help you decide how hot, cold, wet, or windy it might be!

Date:

Astronomy

May. 24, 2013 Rise Set
Actual Time 6:27 AM EDT 8:20 PM EDT
Civil Twilight 6:00 AM EDT 8:46 PM EDT
Nautical Twilight 5:28 AM EDT 9:19 PM EDT
Astronomical Twilight 4:53 AM EDT 9:53 PM EDT
Moon 8:02 PM EDT (5/24) 5:55 AM EDT (5/24)
Length of Visible Light 14h 46m
Length of Day
13h 52m
Full, 100% of the Moon is Illuminated
May 24
Full
May 25
Full
May 31
Last Quarter
Jun 8
New
Jun 16
First Quarter

Hourly Weather History & Observations

Time (EDT) Temp. Heat Index Dew Point Humidity Pressure Visibility Wind Dir Wind Speed Gust Speed Precip Events Conditions
12:56 AM 70.0 °F - 68.0 °F 93% 29.97 in 10.0 mi WSW 3.5 mph - N/A   Clear
1:56 AM 69.1 °F - 64.9 °F 87% 29.97 in 10.0 mi West 6.9 mph - N/A   Clear
2:56 AM 69.1 °F - 66.0 °F 90% 29.96 in 10.0 mi WSW 5.8 mph - N/A   Clear
3:56 AM 66.9 °F - 66.0 °F 97% 29.95 in 8.0 mi WSW 5.8 mph - N/A   Clear
4:56 AM 66.9 °F - 66.0 °F 97% 29.95 in 7.0 mi WSW 3.5 mph - N/A   Clear
5:56 AM 66.9 °F - 66.0 °F 97% 29.98 in 7.0 mi West 5.8 mph - N/A   Clear
6:56 AM 69.1 °F - 66.9 °F 93% 30.00 in 7.0 mi West 5.8 mph - N/A   Partly Cloudy
7:56 AM 73.0 °F - 68.0 °F 84% 30.01 in 10.0 mi WNW 5.8 mph - N/A   Partly Cloudy
8:56 AM 77.0 °F - 64.0 °F 64% 30.03 in 10.0 mi NNW 8.1 mph - N/A   Partly Cloudy
9:56 AM 80.1 °F 81.5 °F 63.0 °F 56% 30.03 in 10.0 mi NNW 6.9 mph - N/A   Scattered Clouds
10:56 AM 82.0 °F 82.7 °F 61.0 °F 49% 30.05 in 10.0 mi Variable 6.9 mph - N/A   Scattered Clouds
11:56 AM 84.0 °F 84.4 °F 61.0 °F 46% 30.05 in 10.0 mi NNW 12.7 mph 18.4 mph N/A   Scattered Clouds
12:56 PM 84.9 °F 84.4 °F 59.0 °F 41% 30.04 in 10.0 mi NW 10.4 mph 19.6 mph N/A   Scattered Clouds
1:56 PM 86.0 °F 85.7 °F 60.1 °F 41% 30.04 in 10.0 mi West 13.8 mph - N/A   Scattered Clouds
2:56 PM 87.1 °F 85.9 °F 57.0 °F 36% 30.03 in 10.0 mi WNW 12.7 mph 19.6 mph N/A   Scattered Clouds
3:56 PM 87.1 °F 85.3 °F 55.0 °F 33% 30.02 in 10.0 mi WNW 13.8 mph 20.7 mph N/A   Scattered Clouds
4:56 PM 87.1 °F - 51.1 °F 29% 30.03 in 10.0 mi WNW 15.0 mph - N/A   Scattered Clouds
5:56 PM 86.0 °F 84.0 °F 53.1 °F 32% 30.03 in 10.0 mi NNW 13.8 mph 19.6 mph N/A   Scattered Clouds
6:56 PM 84.9 °F 83.2 °F 53.1 °F 33% 30.04 in 10.0 mi NW 5.8 mph - N/A   Scattered Clouds
7:56 PM 81.0 °F 80.5 °F 54.0 °F 39% 30.05 in 10.0 mi NNW 4.6 mph - N/A   Scattered Clouds
8:56 PM 73.9 °F - 57.0 °F 55% 30.07 in 10.0 mi North 4.6 mph - N/A   Partly Cloudy
9:56 PM 70.0 °F - 57.0 °F 63% 30.09 in 10.0 mi North 3.5 mph - N/A   Clear
10:56 PM 69.1 °F - 55.9 °F 63% 30.12 in 10.0 mi North 3.5 mph - N/A   Clear
11:56 PM 64.9 °F - 57.9 °F 78% 30.13 in 10.0 mi NE 3.5 mph - N/A   Clear